THURAYA-2

Last updated on Sat Dec 13 2025 00:02:46 GMT+0000 (Coordinated Universal Time)

1 27825U 03026A 25346.21370541 .00000130 00000+0 00000+0 0 9990 2 27825 8.5449 32.7056 0003253 252.8387 276.5590 1.00271677 82473
UTC large
Height (km)
Speed (km/s)
/
Latitude / Longitude
Inclination (degrees)
Orbital Period (minutes)
Azimuth
Elevation
Range (km)
Doppler Factor

Next 0 passes for location: London (51.5072 / 0.1276)

Sorry there are no passes over London.